Tracking 29892 objects as of 21-Nov-2024
HD Live streaming from Space Station
objects crossing your sky now

PEGASUS DEB

Track PEGASUS DEB now!
10-day predictions


NORAD ID: 39310
Int'l Code: 1994-029AEV
Perigee: 569.3 km
Apogee: 922.5 km
Inclination: 81.8 °
Period: 99.6 minutes
Semi major axis: 7116 km
RCS: 0.0026 m2 (small)
Launch date: May 19, 1994
Source: United States (US)
Launch site: AIR FORCE WESTERN TEST RANGE (AFWTR)

Note: This is SATELLITE DEBRIS
Your satellite tracking list
Your tracking list is empty




NASA's NSSDC Master Catalog

Two Line Element Set (TLE):
1 39310U 94029AEV 24324.09625837  .00011252  00000-0  21480-2 0  9993
2 39310  81.8228 260.1871 0248172 296.8916  60.7107 14.45993487760847
Source of the keplerian elements: AFSPC